Year,Month,Day,Hour,Minute,Value (Times are PST for temperature in C)
2012,04,07,00,00,0.50
2012,04,07,00,01,0.50
2012,04,07,00,02,0.50
2012,04,07,00,03,0.50
2012,04,07,00,04,0.50
2012,04,07,00,05,0.50
2012,04,07,00,06,0.50
2012,04,07,00,07,0.50
2012,04,07,00,08,0.50
2012,04,07,00,09,0.50
2012,04,07,00,10,0.40
2012,04,07,00,11,0.40
2012,04,07,00,12,0.40
2012,04,07,00,18,0.30
2012,04,07,00,19,0.30
2012,04,07,00,20,0.30
2012,04,07,00,21,0.30
2012,04,07,00,22,0.30
2012,04,07,00,23,0.30
2012,04,07,00,24,0.30
2012,04,07,00,25,0.30
2012,04,07,00,26,0.30
2012,04,07,00,27,0.30
2012,04,07,00,28,0.30
2012,04,07,00,29,0.30
2012,04,07,00,30,0.30
2012,04,07,00,31,0.30
2012,04,07,00,32,0.30
2012,04,07,00,33,0.30
2012,04,07,00,34,0.30
2012,04,07,00,35,0.30
2012,04,07,00,36,0.30
2012,04,07,00,37,0.20
2012,04,07,00,38,0.20
2012,04,07,00,39,0.20
2012,04,07,00,40,0.20
2012,04,07,00,41,0.20
2012,04,07,00,42,0.20
2012,04,07,00,43,0.20
2012,04,07,00,44,0.10
2012,04,07,00,45,0.10
2012,04,07,00,46,0.10
2012,04,07,00,47,0.00
2012,04,07,00,48,0.00
2012,04,07,00,49,0.00
2012,04,07,00,50,0.00
2012,04,07,00,51,-0.10
2012,04,07,00,52,-0.10
2012,04,07,00,53,-0.10
2012,04,07,00,54,-0.10
2012,04,07,00,55,-0.10
2012,04,07,00,56,-0.10
2012,04,07,00,57,-0.10
2012,04,07,00,58,-0.10
2012,04,07,00,59,-0.10
2012,04,07,01,00,-0.10
2012,04,07,01,01,-0.10
2012,04,07,01,02,-0.10
2012,04,07,01,03,-0.10
2012,04,07,01,04,-0.10
2012,04,07,01,05,-0.10
2012,04,07,01,06,-0.10
2012,04,07,01,07,-0.10
2012,04,07,01,08,-0.10
2012,04,07,01,09,-0.10
2012,04,07,01,10,-0.10
2012,04,07,01,11,-0.10
2012,04,07,01,12,-0.10
2012,04,07,01,13,-0.20
2012,04,07,01,14,-0.20
2012,04,07,01,15,-0.20
2012,04,07,01,16,-0.20
2012,04,07,01,17,-0.20
2012,04,07,01,18,-0.20
2012,04,07,01,19,-0.20
2012,04,07,01,20,-0.20
2012,04,07,01,21,-0.20
2012,04,07,01,22,-0.30
2012,04,07,01,23,-0.30
2012,04,07,01,24,-0.30
2012,04,07,01,25,-0.30
2012,04,07,01,26,-0.30
2012,04,07,01,27,-0.30
2012,04,07,01,28,-0.30
2012,04,07,01,29,-0.30
2012,04,07,01,30,-0.30
2012,04,07,01,31,-0.30
2012,04,07,01,32,-0.30
2012,04,07,01,33,-0.30
2012,04,07,01,34,-0.30
2012,04,07,01,35,-0.30
2012,04,07,01,36,-0.30
2012,04,07,01,37,-0.30
2012,04,07,01,38,-0.30
2012,04,07,01,39,-0.30
2012,04,07,01,40,-0.30
2012,04,07,01,41,-0.30
2012,04,07,01,42,-0.30
2012,04,07,01,43,-0.30
2012,04,07,01,44,-0.30
2012,04,07,01,45,-0.30
2012,04,07,01,46,-0.30
2012,04,07,01,47,-0.30
2012,04,07,01,48,-0.30
2012,04,07,01,49,-0.30
2012,04,07,01,50,-0.30
2012,04,07,01,51,-0.30
2012,04,07,01,52,-0.30
2012,04,07,01,53,-0.30
2012,04,07,01,54,-0.30
2012,04,07,01,55,-0.30
2012,04,07,01,56,-0.30
2012,04,07,01,57,-0.30
2012,04,07,01,58,-0.30
2012,04,07,01,59,-0.30
2012,04,07,02,00,-0.30
2012,04,07,02,01,-0.30
2012,04,07,02,02,-0.30
2012,04,07,02,03,-0.30
2012,04,07,02,04,-0.30
2012,04,07,02,05,-0.40
2012,04,07,02,06,-0.40
2012,04,07,02,07,-0.40
2012,04,07,02,08,-0.40
2012,04,07,02,09,-0.40
2012,04,07,02,10,-0.40
2012,04,07,02,11,-0.50
2012,04,07,02,12,-0.50
2012,04,07,02,13,-0.50
2012,04,07,02,14,-0.50
2012,04,07,02,15,-0.60
2012,04,07,02,16,-0.60
2012,04,07,02,17,-0.60
2012,04,07,02,18,-0.60
2012,04,07,02,19,-0.60
2012,04,07,02,20,-0.60
2012,04,07,02,21,-0.60
2012,04,07,02,22,-0.60
2012,04,07,02,23,-0.60
2012,04,07,02,24,-0.60
2012,04,07,02,25,-0.60
2012,04,07,02,26,-0.60
2012,04,07,02,27,-0.60
2012,04,07,02,28,-0.70
2012,04,07,02,29,-0.70
2012,04,07,02,30,-0.70
2012,04,07,02,31,-0.70
2012,04,07,02,32,-0.70
2012,04,07,02,33,-0.70
2012,04,07,02,34,-0.70
2012,04,07,02,35,-0.70
2012,04,07,02,36,-0.70
2012,04,07,02,37,-0.70
2012,04,07,02,38,-0.70
2012,04,07,02,39,-0.70
2012,04,07,02,40,-0.70
2012,04,07,02,41,-0.70
2012,04,07,02,42,-0.80
2012,04,07,02,43,-0.80
2012,04,07,02,44,-0.80
2012,04,07,02,45,-0.80
2012,04,07,02,46,-0.80
2012,04,07,02,47,-0.80
2012,04,07,02,48,-0.80
2012,04,07,02,49,-0.80
2012,04,07,02,50,-0.80
2012,04,07,02,51,-0.80
2012,04,07,02,52,-0.80
2012,04,07,02,53,-0.80
2012,04,07,02,54,-0.80
2012,04,07,02,55,-0.80
2012,04,07,02,56,-0.80
2012,04,07,02,57,-0.90
2012,04,07,02,58,-0.90
2012,04,07,02,59,-0.90
2012,04,07,03,00,-0.90
2012,04,07,03,01,-0.90
2012,04,07,03,02,-0.90
2012,04,07,03,03,-0.90
2012,04,07,03,04,-0.90
2012,04,07,03,05,-1.00
2012,04,07,03,06,-1.00
2012,04,07,03,07,-1.00
2012,04,07,03,08,-1.00
2012,04,07,03,09,-1.00
2012,04,07,03,10,-1.00
2012,04,07,03,11,-1.00
2012,04,07,03,12,-1.00
2012,04,07,03,13,-1.00
2012,04,07,03,14,-1.00
2012,04,07,03,15,-1.10
2012,04,07,03,16,-1.10
2012,04,07,03,17,-1.10
2012,04,07,03,18,-1.10
2012,04,07,03,19,-1.10
2012,04,07,03,20,-1.10
2012,04,07,03,21,-1.10
2012,04,07,03,22,-1.10
2012,04,07,03,23,-1.10
2012,04,07,03,24,-1.10
2012,04,07,03,25,-1.10
2012,04,07,03,26,-1.10
2012,04,07,03,27,-1.10
2012,04,07,03,28,-1.10
2012,04,07,03,29,-1.00
2012,04,07,03,30,-1.00
2012,04,07,03,31,-1.00
2012,04,07,03,32,-1.00
2012,04,07,03,33,-1.00
2012,04,07,03,34,-1.00
2012,04,07,03,35,-1.00
2012,04,07,03,36,-1.10
2012,04,07,03,37,-1.10
2012,04,07,03,38,-1.10
2012,04,07,03,39,-1.10
2012,04,07,03,40,-1.10
2012,04,07,03,41,-1.10
2012,04,07,03,42,-1.10
2012,04,07,03,43,-1.10
2012,04,07,03,44,-1.10
2012,04,07,03,45,-1.10
2012,04,07,03,46,-1.10
2012,04,07,03,47,-1.10
2012,04,07,03,48,-1.10
2012,04,07,03,49,-1.20
2012,04,07,03,50,-1.20
2012,04,07,03,51,-1.20
2012,04,07,03,52,-1.20
2012,04,07,03,53,-1.20
2012,04,07,03,54,-1.20
2012,04,07,03,55,-1.20
2012,04,07,03,56,-1.30
2012,04,07,03,57,-1.30
2012,04,07,03,58,-1.30
2012,04,07,03,59,-1.30
2012,04,07,04,00,-1.30
2012,04,07,04,01,-1.30
2012,04,07,04,02,-1.30
2012,04,07,04,03,-1.30
2012,04,07,04,04,-1.30
2012,04,07,04,05,-1.40
2012,04,07,04,06,-1.40
2012,04,07,04,07,-1.40
2012,04,07,04,08,-1.40
2012,04,07,04,09,-1.40
2012,04,07,04,10,-1.40
2012,04,07,04,11,-1.40
2012,04,07,04,12,-1.40
2012,04,07,04,13,-1.40
2012,04,07,04,14,-1.40
2012,04,07,04,15,-1.50
2012,04,07,04,16,-1.50
2012,04,07,04,17,-1.50
2012,04,07,04,18,-1.50
2012,04,07,04,19,-1.50
2012,04,07,04,20,-1.50
2012,04,07,04,21,-1.60
2012,04,07,04,22,-1.60
2012,04,07,04,23,-1.60
2012,04,07,04,24,-1.60
2012,04,07,04,25,-1.60
2012,04,07,04,26,-1.70
2012,04,07,04,27,-1.70
2012,04,07,04,28,-1.70
2012,04,07,04,29,-1.70
2012,04,07,04,30,-1.70
2012,04,07,04,31,-1.70
2012,04,07,04,32,-1.70
2012,04,07,04,33,-1.60
2012,04,07,04,34,-1.60
2012,04,07,04,35,-1.60
2012,04,07,04,36,-1.60
2012,04,07,04,37,-1.60
2012,04,07,04,38,-1.60
2012,04,07,04,39,-1.60
2012,04,07,04,40,-1.60
2012,04,07,04,41,-1.60
2012,04,07,04,42,-1.60
2012,04,07,04,43,-1.60
2012,04,07,04,44,-1.60
2012,04,07,04,45,-1.60
2012,04,07,04,46,-1.70
2012,04,07,04,47,-1.70
2012,04,07,04,48,-1.70
2012,04,07,04,49,-1.60
2012,04,07,04,50,-1.60
2012,04,07,04,51,-1.60
2012,04,07,04,52,-1.60
2012,04,07,04,53,-1.60
2012,04,07,04,54,-1.60
2012,04,07,04,55,-1.60
2012,04,07,04,56,-1.60
2012,04,07,04,57,-1.60
2012,04,07,04,58,-1.60
2012,04,07,04,59,-1.60
2012,04,07,05,00,-1.60
2012,04,07,05,01,-1.60
2012,04,07,05,02,-1.60
2012,04,07,05,03,-1.60
2012,04,07,05,04,-1.60
2012,04,07,05,05,-1.60
2012,04,07,05,06,-1.60
2012,04,07,05,07,-1.60
2012,04,07,05,08,-1.60
2012,04,07,05,09,-1.60
2012,04,07,05,10,-1.60
2012,04,07,05,11,-1.50
2012,04,07,05,12,-1.50
2012,04,07,05,13,-1.50
2012,04,07,05,14,-1.50
2012,04,07,05,15,-1.50
2012,04,07,05,16,-1.50
2012,04,07,05,17,-1.50
2012,04,07,05,18,-1.50
2012,04,07,05,19,-1.50
2012,04,07,05,20,-1.50
2012,04,07,05,21,-1.50
2012,04,07,05,22,-1.50
2012,04,07,05,23,-1.50
2012,04,07,05,24,-1.40
2012,04,07,05,25,-1.40
2012,04,07,05,26,-1.50
2012,04,07,05,27,-1.40
2012,04,07,05,28,-1.50
2012,04,07,05,29,-1.50
2012,04,07,05,30,-1.50
2012,04,07,05,31,-1.50
2012,04,07,05,32,-1.50
2012,04,07,05,33,-1.50
2012,04,07,05,34,-1.50
2012,04,07,05,35,-1.60
2012,04,07,05,36,-1.60
2012,04,07,05,37,-1.60
2012,04,07,05,38,-1.60
2012,04,07,05,39,-1.60
2012,04,07,05,40,-1.60
2012,04,07,05,41,-1.60
2012,04,07,05,42,-1.60
2012,04,07,05,43,-1.60
2012,04,07,05,44,-1.60
2012,04,07,05,45,-1.60
2012,04,07,05,46,-1.60
2012,04,07,05,47,-1.60
2012,04,07,05,48,-1.60
2012,04,07,05,49,-1.60
2012,04,07,05,50,-1.50
2012,04,07,05,51,-1.50
2012,04,07,05,52,-1.50
2012,04,07,05,53,-1.50
2012,04,07,05,54,-1.40
2012,04,07,05,55,-1.40
2012,04,07,05,56,-1.40
2012,04,07,05,57,-1.40
2012,04,07,05,58,-1.40
2012,04,07,05,59,-1.40
2012,04,07,06,00,-1.40
2012,04,07,06,01,-1.40
2012,04,07,06,02,-1.40
2012,04,07,06,03,-1.40
2012,04,07,06,04,-1.40
2012,04,07,06,05,-1.40
2012,04,07,06,06,-1.40
2012,04,07,06,07,-1.40
2012,04,07,06,08,-1.40
2012,04,07,06,09,-1.40
2012,04,07,06,10,-1.30
2012,04,07,06,11,-1.30
2012,04,07,06,12,-1.30
2012,04,07,06,13,-1.30
2012,04,07,06,14,-1.30
2012,04,07,06,15,-1.30
2012,04,07,06,16,-1.30
2012,04,07,06,17,-1.30
2012,04,07,06,18,-1.30
2012,04,07,06,19,-1.30
2012,04,07,06,20,-1.30
2012,04,07,06,21,-1.30
2012,04,07,06,22,-1.30
2012,04,07,06,23,-1.30
2012,04,07,06,24,-1.30
2012,04,07,06,25,-1.30
2012,04,07,06,26,-1.30
2012,04,07,06,27,-1.40
2012,04,07,06,28,-1.40
2012,04,07,06,29,-1.40
2012,04,07,06,30,-1.30
2012,04,07,06,31,-1.30
2012,04,07,06,32,-1.30
2012,04,07,06,33,-1.30
2012,04,07,06,34,-1.30
2012,04,07,06,35,-1.30
2012,04,07,06,36,-1.30
2012,04,07,06,37,-1.30
2012,04,07,06,38,-1.30
2012,04,07,06,39,-1.30
2012,04,07,06,40,-1.30
2012,04,07,06,41,-1.30
2012,04,07,06,42,-1.30
2012,04,07,06,43,-1.30
2012,04,07,06,44,-1.30
2012,04,07,06,45,-1.30
2012,04,07,06,46,-1.30
2012,04,07,06,47,-1.20
2012,04,07,06,48,-1.20
2012,04,07,06,49,-1.20
2012,04,07,06,50,-1.20
2012,04,07,06,51,-1.20
2012,04,07,06,52,-1.20
2012,04,07,06,53,-1.20
2012,04,07,06,54,-1.20
2012,04,07,06,55,-1.20
2012,04,07,06,56,-1.20
2012,04,07,06,57,-1.20
2012,04,07,06,58,-1.20
2012,04,07,06,59,-1.20
2012,04,07,07,00,-1.20
2012,04,07,07,01,-1.20
2012,04,07,07,02,-1.20
2012,04,07,07,03,-1.20
2012,04,07,07,04,-1.10
2012,04,07,07,05,-1.10
2012,04,07,07,06,-1.10
2012,04,07,07,07,-1.10
2012,04,07,07,08,-1.10
2012,04,07,07,09,-1.10
2012,04,07,07,10,-1.10
2012,04,07,07,11,-1.10
2012,04,07,07,12,-1.10
2012,04,07,07,13,-1.10
2012,04,07,07,14,-1.10
2012,04,07,07,15,-1.10
2012,04,07,07,16,-1.00
2012,04,07,07,17,-1.00
2012,04,07,07,18,-1.00
2012,04,07,07,19,-1.00
2012,04,07,07,20,-1.00
2012,04,07,07,21,-0.90
2012,04,07,07,22,-0.90
2012,04,07,07,23,-0.90
2012,04,07,07,24,-0.80
2012,04,07,07,25,-0.80
2012,04,07,07,26,-0.80
2012,04,07,07,27,-0.70
2012,04,07,07,28,-0.70
2012,04,07,07,29,-0.60
2012,04,07,07,30,-0.60
2012,04,07,07,31,-0.50
2012,04,07,07,32,-0.50
2012,04,07,07,33,-0.40
2012,04,07,07,34,-0.30
2012,04,07,07,35,-0.30
2012,04,07,07,36,-0.20
2012,04,07,07,37,-0.20
2012,04,07,07,38,-0.10
2012,04,07,07,39,0.00
2012,04,07,07,40,0.00
2012,04,07,07,41,0.10
2012,04,07,07,42,0.20
2012,04,07,07,43,0.20
2012,04,07,07,44,0.30
2012,04,07,07,45,0.40
2012,04,07,07,46,0.50
2012,04,07,07,47,0.60
2012,04,07,07,48,0.70
2012,04,07,07,49,0.80
2012,04,07,07,50,0.90
2012,04,07,07,51,1.10
2012,04,07,07,52,1.20
2012,04,07,07,53,1.30
2012,04,07,07,54,1.30
2012,04,07,07,55,1.40
2012,04,07,07,56,1.50
2012,04,07,07,57,1.60
2012,04,07,07,58,1.70
2012,04,07,07,59,1.80
2012,04,07,08,00,1.90
2012,04,07,08,01,2.00
2012,04,07,08,02,2.10
2012,04,07,08,03,2.20
2012,04,07,08,04,2.20
2012,04,07,08,05,2.30
2012,04,07,08,06,2.40
2012,04,07,08,07,2.40
2012,04,07,08,08,2.50
2012,04,07,08,09,2.50
2012,04,07,08,10,2.60
2012,04,07,08,11,2.70
2012,04,07,08,12,2.70
2012,04,07,08,13,2.70
2012,04,07,08,14,2.80
2012,04,07,08,15,2.80
2012,04,07,08,16,2.90
2012,04,07,08,17,3.00
2012,04,07,08,18,3.00
2012,04,07,08,19,3.10
2012,04,07,08,20,3.20
2012,04,07,08,21,3.30
2012,04,07,08,22,3.40
2012,04,07,08,23,3.40
2012,04,07,08,24,3.50
2012,04,07,08,25,3.60
2012,04,07,08,26,3.60
2012,04,07,08,27,3.60
2012,04,07,08,28,3.70
2012,04,07,08,29,3.80
2012,04,07,08,30,3.80
2012,04,07,08,31,3.90
2012,04,07,08,32,3.90
2012,04,07,08,33,3.90
2012,04,07,08,34,3.90
2012,04,07,08,35,4.00
2012,04,07,08,36,4.00
2012,04,07,08,37,4.10
2012,04,07,08,38,4.20
2012,04,07,08,39,4.20
2012,04,07,08,40,4.20
2012,04,07,08,41,4.30
2012,04,07,08,42,4.30
2012,04,07,08,43,4.30
2012,04,07,08,44,4.40
2012,04,07,08,45,4.40
2012,04,07,08,46,4.50
2012,04,07,08,47,4.50
2012,04,07,08,48,4.60
2012,04,07,08,49,4.70
2012,04,07,08,50,4.70
2012,04,07,08,51,4.80
2012,04,07,08,52,4.90
2012,04,07,08,53,4.90
2012,04,07,08,54,5.00
2012,04,07,08,55,5.10
2012,04,07,08,56,5.10
2012,04,07,08,57,5.20
2012,04,07,08,58,5.20
2012,04,07,08,59,5.30
2012,04,07,09,00,5.30
2012,04,07,09,01,5.30
2012,04,07,09,02,5.40
2012,04,07,09,03,5.40
2012,04,07,09,04,5.40
2012,04,07,09,05,5.40
2012,04,07,09,06,5.40
2012,04,07,09,07,5.50
2012,04,07,09,08,5.50
2012,04,07,09,09,5.50
2012,04,07,09,10,5.60
2012,04,07,09,11,5.60
2012,04,07,09,12,5.60
2012,04,07,09,13,5.70
2012,04,07,09,14,5.80
2012,04,07,09,15,5.90
2012,04,07,09,16,5.90
2012,04,07,09,17,5.90
2012,04,07,09,18,5.90
2012,04,07,09,19,6.00
2012,04,07,09,20,6.00
2012,04,07,09,21,6.00
2012,04,07,09,22,6.10
2012,04,07,09,23,6.10
2012,04,07,09,24,6.20
2012,04,07,09,25,6.20
2012,04,07,09,26,6.20
2012,04,07,09,27,6.30
2012,04,07,09,28,6.30
2012,04,07,09,29,6.40
2012,04,07,09,30,6.40
2012,04,07,09,31,6.50
2012,04,07,09,32,6.50
2012,04,07,09,33,6.60
2012,04,07,09,34,6.70
2012,04,07,09,35,6.70
2012,04,07,09,36,6.80
2012,04,07,09,37,6.80
2012,04,07,09,38,6.90
2012,04,07,09,39,6.90
2012,04,07,09,40,7.00
2012,04,07,09,41,7.00
2012,04,07,09,42,7.00
2012,04,07,09,43,7.10
2012,04,07,09,44,7.10
2012,04,07,09,45,7.00
2012,04,07,09,46,7.00
2012,04,07,09,47,7.00
2012,04,07,09,48,6.90
2012,04,07,09,49,6.90
2012,04,07,09,50,6.90
2012,04,07,09,51,6.90
2012,04,07,09,52,7.00
2012,04,07,09,53,7.10
2012,04,07,09,54,7.20
2012,04,07,09,55,7.20
2012,04,07,09,56,7.30
2012,04,07,09,57,7.40
2012,04,07,09,58,7.40
2012,04,07,09,59,7.50
2012,04,07,10,00,7.60
2012,04,07,10,01,7.60
2012,04,07,10,02,7.70
2012,04,07,10,03,7.70
2012,04,07,10,04,7.70
2012,04,07,10,05,7.80
2012,04,07,10,06,7.80
2012,04,07,10,07,7.80
2012,04,07,10,08,7.80
2012,04,07,10,09,7.80
2012,04,07,10,10,7.80
2012,04,07,10,11,7.80
2012,04,07,10,12,7.90
2012,04,07,10,13,7.90
2012,04,07,10,14,8.00
2012,04,07,10,15,8.10
2012,04,07,10,16,8.20
2012,04,07,10,17,8.20
2012,04,07,10,18,8.30
2012,04,07,10,19,8.30
2012,04,07,10,20,8.20
2012,04,07,10,21,8.20
2012,04,07,10,22,8.10
2012,04,07,10,23,8.10
2012,04,07,10,24,8.10
2012,04,07,10,25,8.10
2012,04,07,10,26,8.10
2012,04,07,10,27,8.10
2012,04,07,10,28,8.20
2012,04,07,10,29,8.20
2012,04,07,10,30,8.20
2012,04,07,10,31,8.30
2012,04,07,10,32,8.40
2012,04,07,10,33,8.40
2012,04,07,10,34,8.50
2012,04,07,10,35,8.50
2012,04,07,10,36,8.60
2012,04,07,10,37,8.70
2012,04,07,10,38,8.70
2012,04,07,10,39,8.70
2012,04,07,10,40,8.80
2012,04,07,10,41,8.70
2012,04,07,10,42,8.70
2012,04,07,10,43,8.70
2012,04,07,10,44,8.70
2012,04,07,10,45,8.80
2012,04,07,10,46,8.80
2012,04,07,10,47,8.80
2012,04,07,10,48,8.80
2012,04,07,10,49,8.80
2012,04,07,10,50,8.80
2012,04,07,10,51,8.80
2012,04,07,10,52,8.80
2012,04,07,10,53,8.80
2012,04,07,10,54,8.80
2012,04,07,10,55,8.80
2012,04,07,10,56,8.80
2012,04,07,10,57,8.90
2012,04,07,10,58,9.00
2012,04,07,10,59,9.10
2012,04,07,11,00,9.10
2012,04,07,11,01,9.10
2012,04,07,11,02,9.20
2012,04,07,11,03,9.30
2012,04,07,11,04,9.20
2012,04,07,11,05,9.10
2012,04,07,11,06,9.00
2012,04,07,11,07,8.90
2012,04,07,11,08,8.90
2012,04,07,11,09,8.80
2012,04,07,11,10,8.90
2012,04,07,11,11,9.00
2012,04,07,11,12,9.10
2012,04,07,11,13,9.20
2012,04,07,11,14,9.30
2012,04,07,11,15,9.50
2012,04,07,11,16,9.60
2012,04,07,11,17,9.60
2012,04,07,11,18,9.70
2012,04,07,11,19,9.60
2012,04,07,11,20,9.50
2012,04,07,11,21,9.40
2012,04,07,11,22,9.30
2012,04,07,11,23,9.30
2012,04,07,11,24,9.40
2012,04,07,11,25,9.40
2012,04,07,11,26,9.50
2012,04,07,11,27,9.50
2012,04,07,11,28,9.60
2012,04,07,11,29,9.60
2012,04,07,11,30,9.60
2012,04,07,11,31,9.60
2012,04,07,11,32,9.70
2012,04,07,11,33,9.80
2012,04,07,11,34,9.80
2012,04,07,11,35,9.90
2012,04,07,11,36,9.90
2012,04,07,11,37,9.80
2012,04,07,11,38,9.70
2012,04,07,11,39,9.50
2012,04,07,11,40,9.50
2012,04,07,11,41,9.50
2012,04,07,11,42,9.50
2012,04,07,11,43,9.60
2012,04,07,11,44,9.60
2012,04,07,11,45,9.60
2012,04,07,11,46,9.60
2012,04,07,11,47,9.60
2012,04,07,11,48,9.60
2012,04,07,11,49,9.60
2012,04,07,11,50,9.70
2012,04,07,11,51,9.70
2012,04,07,11,52,9.60
2012,04,07,11,53,9.60
2012,04,07,11,54,9.60
2012,04,07,11,55,9.60
2012,04,07,11,56,9.70
2012,04,07,11,57,9.80
2012,04,07,11,58,9.80
2012,04,07,11,59,9.80
2012,04,07,12,00,9.80
2012,04,07,12,01,9.80
2012,04,07,12,02,9.70
2012,04,07,12,03,9.70
2012,04,07,12,04,9.50
2012,04,07,12,05,9.40
2012,04,07,12,06,9.40
2012,04,07,12,07,9.40
2012,04,07,12,08,9.40
2012,04,07,12,09,9.40
2012,04,07,12,10,9.40
2012,04,07,12,11,9.50
2012,04,07,12,12,9.60
2012,04,07,12,13,9.70
2012,04,07,12,14,9.80
2012,04,07,12,15,9.80
2012,04,07,12,16,9.80
2012,04,07,12,17,9.80
2012,04,07,12,18,9.80
2012,04,07,12,19,9.90
2012,04,07,12,20,9.90
2012,04,07,12,21,9.80
2012,04,07,12,22,9.80
2012,04,07,12,23,9.80
2012,04,07,12,24,9.80
2012,04,07,12,25,9.80
2012,04,07,12,26,9.90
2012,04,07,12,27,9.90
2012,04,07,12,28,10.10
2012,04,07,12,29,10.30
2012,04,07,12,30,10.30
2012,04,07,12,31,10.20
2012,04,07,12,32,10.10
2012,04,07,12,33,10.10
2012,04,07,12,34,10.10
2012,04,07,12,35,10.20
2012,04,07,12,36,10.20
2012,04,07,12,37,10.30
2012,04,07,12,38,10.30
2012,04,07,12,39,10.30
2012,04,07,12,40,10.40
2012,04,07,12,41,10.40
2012,04,07,12,42,10.40
2012,04,07,12,43,10.40
2012,04,07,12,44,10.50
2012,04,07,12,45,10.50
2012,04,07,12,46,10.60
2012,04,07,12,47,10.70
2012,04,07,12,48,10.70
2012,04,07,12,49,10.70
2012,04,07,12,50,10.70
2012,04,07,12,51,10.70
2012,04,07,12,52,10.70
2012,04,07,12,53,10.60
2012,04,07,12,54,10.50
2012,04,07,12,55,10.40
2012,04,07,12,56,10.30
2012,04,07,12,57,10.30
2012,04,07,12,58,10.30
2012,04,07,12,59,10.30
2012,04,07,13,00,10.30
2012,04,07,13,01,10.20
2012,04,07,13,02,10.20
2012,04,07,13,03,10.10
2012,04,07,13,04,10.00
2012,04,07,13,05,10.00
2012,04,07,13,06,10.10
2012,04,07,13,07,10.20
2012,04,07,13,08,10.40
2012,04,07,13,09,10.50
2012,04,07,13,10,10.60
2012,04,07,13,11,10.70
2012,04,07,13,12,10.80
2012,04,07,13,13,10.80
2012,04,07,13,14,10.90
2012,04,07,13,15,10.90
2012,04,07,13,16,10.90
2012,04,07,13,17,10.80
2012,04,07,13,18,10.80
2012,04,07,13,19,10.70
2012,04,07,13,20,10.70
2012,04,07,13,21,10.70
2012,04,07,13,22,10.70
2012,04,07,13,23,10.70
2012,04,07,13,24,10.80
2012,04,07,13,25,10.80
2012,04,07,13,26,10.80
2012,04,07,13,27,10.70
2012,04,07,13,28,10.80
2012,04,07,13,29,10.90
2012,04,07,13,30,11.00
2012,04,07,13,31,11.10
2012,04,07,13,32,11.20
2012,04,07,13,33,11.30
2012,04,07,13,34,11.20
2012,04,07,13,35,11.10
2012,04,07,13,36,11.00
2012,04,07,13,37,10.90
2012,04,07,13,38,10.90
2012,04,07,13,39,10.90
2012,04,07,13,40,10.90
2012,04,07,13,41,10.90
2012,04,07,13,42,10.90
2012,04,07,13,43,10.80
2012,04,07,13,44,10.90
2012,04,07,13,45,11.00
2012,04,07,13,46,11.10
2012,04,07,13,47,11.10
2012,04,07,13,48,11.00
2012,04,07,13,49,10.90
2012,04,07,13,50,10.90
2012,04,07,13,51,11.00
2012,04,07,13,52,11.00
2012,04,07,13,53,11.10
2012,04,07,13,54,11.10
2012,04,07,13,55,11.10
2012,04,07,13,56,11.00
2012,04,07,13,57,11.00
2012,04,07,13,58,11.00
2012,04,07,13,59,10.90
2012,04,07,14,00,10.90
2012,04,07,14,01,10.90
2012,04,07,14,02,10.90
2012,04,07,14,03,11.00
2012,04,07,14,04,11.20
2012,04,07,14,05,11.30
2012,04,07,14,06,11.30
2012,04,07,14,07,11.50
2012,04,07,14,08,11.50
2012,04,07,14,09,11.50
2012,04,07,14,10,11.50
2012,04,07,14,11,11.50
2012,04,07,14,12,11.50
2012,04,07,14,13,11.40
2012,04,07,14,14,11.30
2012,04,07,14,15,11.30
2012,04,07,14,16,11.20
2012,04,07,14,17,11.20
2012,04,07,14,18,11.20
2012,04,07,14,19,11.20
2012,04,07,14,20,11.30
2012,04,07,14,21,11.40
2012,04,07,14,22,11.50
2012,04,07,14,23,11.50
2012,04,07,14,24,11.50
2012,04,07,14,25,11.60
2012,04,07,14,26,11.70
2012,04,07,14,27,11.70
2012,04,07,14,28,11.80
2012,04,07,14,29,11.80
2012,04,07,14,30,11.90
2012,04,07,14,31,11.90
2012,04,07,14,32,12.00
2012,04,07,14,33,12.10
2012,04,07,14,34,12.20
2012,04,07,14,35,12.20
2012,04,07,14,36,12.20
2012,04,07,14,37,12.10
2012,04,07,14,38,12.10
2012,04,07,14,39,12.10
2012,04,07,14,40,12.20
2012,04,07,14,41,12.30
2012,04,07,14,42,12.30
2012,04,07,14,43,12.30
2012,04,07,14,44,12.30
2012,04,07,14,45,12.30
2012,04,07,14,46,12.30
2012,04,07,14,47,12.30
2012,04,07,14,48,12.40
2012,04,07,14,49,12.40
2012,04,07,14,50,12.40
2012,04,07,14,51,12.40
2012,04,07,14,52,12.40
2012,04,07,14,53,12.40
2012,04,07,14,54,12.30
2012,04,07,14,55,12.30
2012,04,07,14,56,12.20
2012,04,07,14,57,12.20
2012,04,07,14,58,12.20
2012,04,07,14,59,12.20
2012,04,07,15,00,12.20
2012,04,07,15,01,12.20
2012,04,07,15,02,12.20
2012,04,07,15,03,12.20
2012,04,07,15,04,12.20
2012,04,07,15,05,12.30
2012,04,07,15,06,12.30
2012,04,07,15,07,12.30
2012,04,07,15,08,12.40
2012,04,07,15,09,12.40
2012,04,07,15,10,12.40
2012,04,07,15,11,12.40
2012,04,07,15,12,12.50
2012,04,07,15,13,12.40
2012,04,07,15,14,12.40
2012,04,07,15,15,12.40
2012,04,07,15,16,12.40
2012,04,07,15,17,12.40
2012,04,07,15,18,12.50
2012,04,07,15,19,12.50
2012,04,07,15,20,12.50
2012,04,07,15,21,12.60
2012,04,07,15,22,12.60
2012,04,07,15,23,12.50
2012,04,07,15,24,12.40
2012,04,07,15,25,12.40
2012,04,07,15,26,12.30
2012,04,07,15,27,12.30
2012,04,07,15,28,12.20
2012,04,07,15,29,12.30
2012,04,07,15,30,12.30
2012,04,07,15,31,12.30
2012,04,07,15,32,12.40
2012,04,07,15,33,12.30
2012,04,07,15,34,12.20
2012,04,07,15,35,12.20
2012,04,07,15,36,12.20
2012,04,07,15,37,12.20
2012,04,07,15,38,12.30
2012,04,07,15,39,12.40
2012,04,07,15,40,12.50
2012,04,07,15,41,12.60
2012,04,07,15,42,12.60
2012,04,07,15,43,12.70
2012,04,07,15,44,12.60
2012,04,07,15,45,12.70
2012,04,07,15,46,12.70
2012,04,07,15,47,12.80
2012,04,07,15,48,12.80
2012,04,07,15,49,12.90
2012,04,07,15,50,13.00
2012,04,07,15,51,13.10
2012,04,07,15,52,13.10
2012,04,07,15,53,13.10
2012,04,07,15,54,13.10
2012,04,07,15,55,13.10
2012,04,07,15,56,13.10
2012,04,07,15,57,13.20
2012,04,07,15,58,13.20
2012,04,07,15,59,13.20
2012,04,07,16,00,13.10
2012,04,07,16,01,13.10
2012,04,07,16,02,13.10
2012,04,07,16,03,13.10
2012,04,07,16,04,13.10
2012,04,07,16,05,13.10
2012,04,07,16,06,13.00
2012,04,07,16,07,13.00
2012,04,07,16,08,13.00
2012,04,07,16,09,12.90
2012,04,07,16,10,13.00
2012,04,07,16,11,13.10
2012,04,07,16,12,13.20
2012,04,07,16,13,13.30
2012,04,07,16,14,13.40
2012,04,07,16,15,13.40
2012,04,07,16,16,13.40
2012,04,07,16,17,13.50
2012,04,07,16,18,13.50
2012,04,07,16,19,13.30
2012,04,07,16,20,13.30
2012,04,07,16,21,13.20
2012,04,07,16,22,13.20
2012,04,07,16,23,13.20
2012,04,07,16,24,13.20
2012,04,07,16,25,13.10
2012,04,07,16,26,13.10
2012,04,07,16,27,13.10
2012,04,07,16,28,13.10
2012,04,07,16,29,13.10
2012,04,07,16,30,13.10
2012,04,07,16,31,13.20
2012,04,07,16,32,13.30
2012,04,07,16,33,13.40
2012,04,07,16,34,13.50
2012,04,07,16,35,13.40
2012,04,07,16,36,13.40
2012,04,07,16,37,13.30
2012,04,07,16,38,13.20
2012,04,07,16,39,13.10
2012,04,07,16,40,13.00
2012,04,07,16,41,13.00
2012,04,07,16,42,13.10
2012,04,07,16,43,13.10
2012,04,07,16,44,13.10
2012,04,07,16,45,13.10
2012,04,07,16,46,13.10
2012,04,07,16,47,13.10
2012,04,07,16,48,13.20
2012,04,07,16,49,13.20
2012,04,07,16,50,13.10
2012,04,07,16,51,13.10
2012,04,07,16,52,13.10
2012,04,07,16,53,13.10
2012,04,07,16,54,13.00
2012,04,07,16,55,13.00
2012,04,07,16,56,13.00
2012,04,07,16,57,12.90
2012,04,07,16,58,12.90
2012,04,07,16,59,12.90
2012,04,07,17,00,12.80
2012,04,07,17,01,12.80
2012,04,07,17,02,12.80
2012,04,07,17,03,12.90
2012,04,07,17,04,12.90
2012,04,07,17,05,12.90
2012,04,07,17,06,12.90
2012,04,07,17,07,13.00
2012,04,07,17,08,13.10
2012,04,07,17,09,13.10
2012,04,07,17,10,13.10
2012,04,07,17,11,13.10
2012,04,07,17,12,13.20
2012,04,07,17,13,13.20
2012,04,07,17,14,13.20
2012,04,07,17,15,13.30
2012,04,07,17,16,13.30
2012,04,07,17,17,13.30
2012,04,07,17,18,13.30
2012,04,07,17,19,13.30
2012,04,07,17,20,13.30
2012,04,07,17,21,13.30
2012,04,07,17,22,13.20
2012,04,07,17,23,13.20
2012,04,07,17,24,13.20
2012,04,07,17,25,13.20
2012,04,07,17,26,13.10
2012,04,07,17,27,13.10
2012,04,07,17,28,13.00
2012,04,07,17,29,12.90
2012,04,07,17,30,12.90
2012,04,07,17,31,12.80
2012,04,07,17,32,12.90
2012,04,07,17,33,12.80
2012,04,07,17,34,12.80
2012,04,07,17,35,12.80
2012,04,07,17,36,12.80
2012,04,07,17,37,12.80
2012,04,07,17,38,12.90
2012,04,07,17,39,12.90